Location: Ahausen
(50.4985°N, 8.2722°E)
Time: 21:20:16
(UTC+00:00)

NOAA 18 - Visible Passes

Search period start: 28 June 2022 00:00
Search period end: 08 July 2022 00:00
Orbit: 840 x 859 km, 98.9° (Epoch: 28 June)

Date Brightness Start Highest point End Pass type
(mag) Time Alt. Az. Time Alt. Az. Time Alt. Az.
28 Jun 6.1 21:33:25 10° S 21:38:39 44° W 21:43:58 10° NNW visible
29 Jun 5.8 21:21:10 10° S 21:26:33 55° W 21:32:00 10° NNW visible
30 Jun 5.5 21:08:59 10° S 21:14:28 68° WSW 21:20:01 10° NNW visible
30 Jun 7.6 22:54:28 10° WSW 22:56:12 11° W 22:57:56 10° WNW visible
01 Jul 5.3 20:56:53 10° SSE 21:02:24 83° WSW 21:07:59 10° NNW visible
01 Jul 7.5 22:40:59 10° WSW 22:43:56 15° W 22:46:55 10° NW visible
02 Jul 5.3 20:44:50 10° SSE 20:50:22 82° ENE 20:55:57 10° NNW visible
02 Jul 7.3 22:28:00 10° SW 22:31:43 18° W 22:35:27 10° NW visible
03 Jul 5.4 20:32:52 10° SSE 20:38:20 67° ENE 20:43:52 10° N visible
03 Jul 7.1 22:15:15 10° SW 22:19:30 22° W 22:23:48 10° NW visible
04 Jul 5.6 20:20:58 10° SE 20:26:20 55° ENE 20:31:45 10° N visible
04 Jul 6.8 22:02:39 10° SSW 22:07:19 28° W 22:12:02 10° NW visible
05 Jul 6.5 21:50:11 10° SSW 21:55:09 34° W 22:00:11 10° NNW visible
06 Jul 6.2 21:37:49 10° SSW 21:43:01 42° W 21:48:17 10° NNW visible
07 Jul 5.9 21:25:32 10° S 21:30:54 51° W 21:36:20 10° NNW visible
